Location: Kalberh�ni
(46.4610°N, 7.2453°E)
Time: 09:00:27
(UTC+00:00)

Cosmos 1455 - Pass Details

Date: 31 October 2021
Orbit: 496 x 520 km, 82.5° (Epoch: 27 November)

Event Time Altitude Azimuth Distance (km) Brightness Sun altitude
Rises 18:56:20 0° 231° (SW) 2,610 6.4 -27.8°
Reaches altitude 10° 18:59:14 10° 255° (WSW) 1,725 5.6 -28.3°
Maximum altitude 19:01:27 15° 292° (WNW) 1,440 5.2 -28.7°
Drops below altitude 10° 19:03:41 10° 328° (NNW) 1,725 5.3 -29.0°
Sets 19:06:35 0° 353° (N) 2,610 6.0 -29.5°
